Regional Weather Roundup
Issued by NWS

Home | Current Version | Previous Version | Graphics & Text | Print | Product List | Glossary On
Versions: 1 2 3 4 5 6 7 8 9 10 11 12 13 14 15 16 17 18 19 20 21 22 23 24 25 26 27 28 29 30 31 32 33 34 35 36 37 38 39 40 41 42 43 44 45 46 47 48 49 50
095
ASUS44 KJAN 201110
RWRMS

MISSISSIPPI HOURLY WEATHER ROUNDUP
NATIONAL WEATHER SERVICE JACKSON MS
600 AM CDT MON APR 20 2015

NOTE: "FAIR: INDICATES FEW OR NO CLOUDS BELOW 12,000 FEET WITH NO
SIGNIFICANT WEATHER AND/OR OBSTRUCTIONS TO VISIBILITY.

MSZ001>002-007>008-010>013-018>021-025>028-034>036-201200-
NORTHWEST MISSISSIPPI

CITY           SKY/WX    TMP DP  RH WIND       PRES   REMARKS
CLARKSDALE       N/A     57  55  94 W15       29.75R
CLEVELAND      FAIR      57  54  89 W14G22    29.76R
GREENWOOD      CLEAR     59  52  77 W6        29.74R
GREENVILLE     CLEAR     57  50  77 W10       29.76R
OLIVE BRANCH   MOCLDY    55  55 100 W12       29.70R
OXFORD         MOCLDY    54  54 100 W8        29.73R
TUNICA         SUNNY     55  52  88 W13G18    29.73S
$$

MSZ003>006-009-014>017-022>024-029>033-037>039-201200-
NORTHEAST MISSISSIPPI

CITY           SKY/WX    TMP DP  RH WIND       PRES   REMARKS
COLUMBUS AFB   CLEAR     60  57  92 W6        29.71R
CORINTH        CLOUDY    59  55  88 W8        29.66S
GOLDN TRIANGLE CLEAR     61  54  77 W12       29.72R
STARKVILLE     FAIR      57  54  88 CALM      29.73R
TUPELO         PTCLDY    57  54  89 W6        29.70R
$$

MSZ040-058-201200-
CENTRAL MISSISSIPPI

CITY           SKY/WX    TMP DP  RH WIND       PRES   REMARKS
JACKSON INTL   CLEAR     60  56  86 W3        29.76R
JACKSON HAWKNS CLEAR     60  57  89 W6        29.77R
MERIDIAN KEY   PTCLDY    63  55  75 SW6       29.75R
MERIDIAN NAS   PTCLDY    64  54  69 W6        29.74R
RAYMOND        FAIR      59  54  82 CALM      29.77R
VICKSBURG      CLEAR     62  56  80 NW5       29.79R
$$

MSZ059>079-201200-
SOUTH MISSISSIPPI

CITY           SKY/WX    TMP DP  RH WIND       PRES   REMARKS
BROOKHAVEN       N/A     61  61 100 W3        29.80R
HATTIESBURG    MOCLDY    68  64  87 W6        29.77R
MCCOMB         PTCLDY    64  62  93 NW6       29.78R
NATCHEZ        CLEAR     61  55  82 NW3       29.80R
PINE BELT      CLOUDY    64  57  77 CALM      29.77S
$$

MSZ080>082-201200-
COASTAL MISSISSIPPI

CITY           SKY/WX    TMP DP  RH WIND       PRES   REMARKS
BILOXI         CLOUDY    72  71  97 W6        29.78R
PASCAGOULA     CLOUDY    71  68  90 SW3       29.77S
GULFPORT       CLOUDY    69  67  93 W3        29.78R
$$



USA.gov is the U.S. government's official web portal to all federal, state and local government web resources and services.